Location: Newark
(44.4156°N, 12.1972°E)
Time: 10:31:54
(UTC+00:00)

STARLINK-1082 - Pass Details

Date: 02 February 2020
Orbit: 348 x 351 km, 53.0° (Epoch: 18 February)

Event Time Altitude Azimuth Distance (km) Brightness Sun altitude
Rises 18:01:17 0° 290° (WNW) 2,156 7.8 -18.1°
Reaches altitude 10° 18:03:49 10° 266° (W) 1,309 6.8 -18.5°
Maximum altitude 18:05:39 15° 227° (SW) 1,041 5.7 -18.9°
Drops below altitude 10° 18:07:28 10° 189° (S) 1,302 5.7 -19.2°
Enters shadow 18:08:24 - 177° (S) 1,581 6.0 -19.4°
